CAPE
0 5 186 353 484 618 495 214 254 427 648 573 490 428 366 415 479 738 1223 1682 1728 1757 2265 1669 1727 1901 1717 2345 1954 1877 1572 1586 1627 1248 609 1271 842 537 196 122 76 62 0
0 1 167 324 496 692 834 683 477 641 837 508 508 476 370 322 444 756 1138 1546 1594 1581 1732 2222 1823 1992 2042 1941 2222 2042 1815 1742 1720 1658 534 210 898 641 223 98 55 32 0
0 0 109 260 395 610 935 960 903 708 880 522 710 784 662 582 413 382 600 1084 1692 1771 2101 2284 2308 2479 2309 1490 2382 1857 1825 1731 1623 1967 848 0 0 4 422 235 91 72 54
0 0 30 237 305 471 650 997 1203 966 985 934 449 515 87 0 0 383 735 1145 1821 1732 1893 2265 2416 2646 2052 2231 1946 1978 2199 2231 1477 631 582 536 131 0 9 252 130 41 68
47 0 9 94 273 309 397 681 1104 1183 954 986 749 340 277 0 49 259 1245 2232 2063 1819 1874 2102 2153 2357 1817 2594 2428 2113 2260 2038 1508 192 0 79 2 0 0 0 4 13 7
183 54 12 42 144 219 296 395 755 1279 1161 945 934 522 84 73 118 291 850 942 962 1224 2342 2124 2171 2738 2854 2637 2418 2142 2562 1661 1055 131 0 0 0 0 0 0 0 0 6
260 210 94 97 111 192 302 379 618 1225 1114 900 756 505 523 372 446 779 699 1077 714 1100 2111 2423 2331 2165 3077 2763 2823 2318 2309 1560 1131 424 0 0 0 0 0 0 0 0 0
342 307 270 170 211 255 405 466 534 1083 1101 887 759 675 693 271 27 515 645 669 700 1132 2167 2098 2225 2909 2754 2574 2932 2479 1857 1417 253 14 0 0 0 0 0 0 0 0 0
392 394 402 350 297 326 426 550 595 982 1069 967 1028 944 944 614 0 130 1264 998 1401 1165 1781 2134 2195 2721 2539 2556 2776 2445 1017 165 4 0 0 0 0 0 0 0 0 0 0
334 363 500 483 486 440 403 571 656 867 1025 966 1105 1099 1069 984 479 398 1110 739 1234 2186 1764 2028 2045 2323 2579 2658 2999 1741 146 86 0 0 0 0 0 0 0 0 0 0 0
152 299 476 622 619 604 561 591 659 775 989 948 938 1028 1085 1073 957 512 623 1188 1267 1755 1907 2119 2143 2144 2763 2781 2905 1503 209 0 1 0 0 0 0 0 0 0 0 0 0
68 103 363 622 688 700 645 644 716 757 986 1009 1056 1072 1129 1145 1127 929 495 557 940 1374 1681 1911 1989 1861 2169 2897 2875 1644 282 33 16 0 0 0 0 0 0 0 0 0 0
351 158 227 592 696 742 750 722 847 812 952 1064 1107 1161 1227 1306 1223 1275 1085 727 735 1026 1220 1638 1782 1509 1883 2843 2916 1702 264 13 0 0 0 0 0 0 0 0 0 0 0
1215 857 715 784 809 834 913 892 847 892 952 1081 1169 1240 1162 1256 1394 1537 1480 1319 989 758 920 1313 1517 1453 2355 3015 2856 1395 162 0 0 0 0 0 0 0 0 0 0 0 0
965 1196 1623 1730 1300 1160 1212 1061 825 878 982 1090 1132 1236 1300 1333 1443 1553 1542 1519 1436 862 620 762 1113 1826 2498 2993 2712 1124 60 0 0 0 0 0 0 0 0 0 0 0 0
361 617 952 1238 1212 1577 1459 1456 1437 1312 1164 1142 1219 1248 1391 1378 1515 1611 1660 1696 1685 1332 668 634 802 2069 2247 2321 2035 903 50 0 0 0 0 0 0 0 0 0 0 0 0
228 221 306 506 795 1296 1396 1354 1407 1565 1465 1245 1136 1300 1451 1564 1646 1759 1790 1786 1892 1707 1190 784 1134 2056 2436 1947 1421 487 79 0 0 0 0 0 0 0 0 0 0 0 0
235 201 180 202 359 605 711 670 1406 1379 1597 1633 1596 1618 1697 1719 1746 1934 1999 2057 2131 2135 1935 1512 1552 2209 2491 1615 780 201 48 0 0 0 0 0 0 0 0 0 0 0 0
82 45 88 149 194 313 75 196 1494 1314 1244 1558 1700 1761 1846 1882 1850 1951 2088 2128 2338 2433 2480 2448 2501 2654 1895 1011 239 151 20 0 0 0 0 0 0 0 0 0 0 0 0
139 91 74 146 132 52 79 205 960 2126 1401 1688 1649 1818 2012 2126 2137 2143 2291 2445 2601 2585 2370 2619 2809 2790 2851 359 72 192 42 0 0 0 0 0 0 0 0 0 0 0 0
34 72 105 100 19 19 141 264 333 605 721 1271 1681 1932 1997 2480 2618 2610 2771 2897 2938 2463 2759 2508 2866 2905 3120 200 11 99 13 0 0 0 0 0 0 0 0 0 0 0 0
9 180 290 233 11 33 168 297 466 168 219 1255 1257 1570 1699 2091 2335 2788 2974 3066 3093 2549 2889 2802 2857 3027 2748 462 0 15 0 0 0 0 0 0 0 0 0 0 0 0 0
2 85 263 280 89 32 5 181 48 78 346 1011 1493 1124 928 1082 1288 2553 2623 2797 2802 2811 2632 2571 2548 2460 2188 435 0 0 0 0 0 0 0 0 0 0 0 0 0 0 0
3 3 125 264 101 12 1 1 2 5 27 423 192 234 156 374 729 486 206 515 1631 1631 2118 2229 2268 2083 1897 1342 0 0 0 0 0 0 0 0 0 0 0 0 0 0 0
0 1 3 106 28 10 3 3 3 0 84 297 206 216 56 49 48 143 224 90 5 19 234 770 2293 1984 1397 1498 105 0 0 0 0 0 0 0 0 0 0 0 0 0 0
0 0 0 1 2 1 1 6 4 26 98 268 203 126 158 119 56 28 3 0 1 0 0 0 580 2229 1419 797 104 0 0 0 0 0 0 0 0 0 0 0 0 0 0
CIN
-0 -52 -23 -29 -26 -9 -17 -60 -39 -26 -30 -38 -13 -4 -9 -13 -14 -4 -6 -9 -5 -2 -4 -1 -0 -1 -2 -4 -1 -2 -3 -1 -2 -2 -19 -22 -18 -23 -92 -116 -134 -133 -1
-0 -39 -25 -28 -38 -25 -21 -26 -41 -32 -22 -46 -47 -27 -41 -41 -24 -6 -6 -6 -8 -4 -5 -7 -4 -8 -5 -0 -5 -1 -2 -1 -2 -1 -21 -68 -7 -10 -78 -158 -160 -166 -73
-0 -0 -57 -37 -39 -44 -35 -36 -40 -33 -29 -36 -38 -33 -36 -64 -69 -50 -23 -14 -7 -6 -9 -12 -13 -17 -10 -1 -1 -4 -1 -0 -1 -0 -5 -0 -0 -127 -26 -85 -135 -144 -190
-0 -0 -119 -42 -47 -50 -38 -37 -41 -43 -40 -41 -64 -79 -156 -0 -0 -76 -24 -14 -5 -7 -8 -13 -14 -19 -12 -5 -2 -1 -1 -0 -0 -21 -31 -35 -163 -0 -6 -75 -95 -15 -149
-132 -0 -208 -83 -58 -42 -53 -42 -50 -54 -43 -61 -68 -115 -150 -0 -258 -133 -7 -4 -8 -9 -8 -10 -14 -12 -1 -0 -0 -4 -0 -0 -2 -125 -0 -181 -80 -0 -0 -0 -0 -2 -0
-59 -131 -191 -141 -57 -38 -50 -60 -71 -76 -73 -83 -92 -126 -232 -260 -206 -128 -32 -29 -28 -3 -6 -7 -12 -10 -6 -1 -0 -5 -0 -18 -16 -201 -0 -0 -0 -0 -0 -0 -0 -0 -1
-53 -63 -117 -101 -81 -49 -53 -63 -75 -91 -94 -101 -103 -150 -141 -163 -138 -84 -63 -35 -61 -20 -1 -6 -6 -1 -0 -1 -0 -1 -0 -2 -6 -145 -0 -0 -0 -0 -0 -0 -0 -0 -0
-40 -54 -63 -83 -66 -67 -62 -73 -79 -82 -93 -106 -120 -142 -144 -172 -290 -124 -82 -82 -80 -40 -8 -6 -1 -0 -0 -0 -0 -0 -1 -12 -266 -465 -0 -0 -0 -0 -0 -0 -0 -0 -0
-37 -47 -51 -56 -69 -77 -72 -78 -77 -85 -90 -101 -105 -118 -121 -154 -0 -170 -59 -85 -45 -53 -15 -9 -1 -1 -1 -0 -0 -0 -105 -341 -161 -0 -0 -0 -0 -0 -0 -0 -0 -0 -0
-46 -48 -45 -65 -62 -67 -68 -64 -61 -81 -84 -79 -91 -95 -101 -111 -149 -154 -79 -117 -72 -14 -28 -5 -5 -1 -0 -0 -0 -24 -386 -428 -0 -0 -0 -0 -0 -0 -0 -0 -0 -0 -0
-46 -39 -39 -59 -81 -60 -45 -53 -51 -56 -86 -75 -79 -86 -95 -102 -116 -154 -126 -76 -81 -55 -42 -6 -3 -7 -0 -0 -0 -39 -373 -0 -208 -0 -0 -0 -0 -0 -0 -0 -0 -0 -0
-81 -75 -43 -48 -78 -69 -57 -50 -56 -54 -74 -88 -86 -92 -94 -103 -104 -133 -154 -129 -110 -88 -74 -40 -22 -32 -1 -0 -0 -26 -344 -576 -560 -0 -0 -0 -0 -0 -0 -0 -0 -0 -0
-144 -140 -78 -67 -93 -81 -80 -81 -73 -66 -75 -106 -122 -115 -108 -107 -112 -113 -121 -144 -142 -114 -109 -84 -71 -104 -22 -1 -0 -27 -354 -631 -160 -0 -0 -0 -0 -0 -0 -0 -0 -0 -0
-211 -214 -186 -141 -138 -124 -112 -107 -95 -70 -91 -124 -141 -133 -129 -128 -117 -108 -103 -114 -134 -145 -132 -117 -109 -100 -1 -0 -0 -83 -431 -0 -0 -0 -0 -0 -0 -0 -0 -0 -0 -0 -0
-267 -245 -146 -132 -170 -185 -176 -189 -194 -142 -130 -164 -151 -161 -145 -109 -93 -90 -83 -86 -92 -136 -159 -166 -139 -44 -0 -0 -0 -155 -489 -0 -0 -0 -0 -0 -0 -0 -0 -0 -0 -0 -0
-442 -384 -281 -216 -217 -183 -185 -180 -176 -173 -166 -194 -193 -167 -150 -124 -112 -94 -82 -76 -81 -104 -156 -162 -152 -25 -1 -22 -47 -202 -505 -0 -0 -0 -0 -0 -0 -0 -0 -0 -0 -0 -0
-460 -502 -488 -398 -329 -213 -203 -214 -174 -158 -189 -233 -240 -193 -155 -134 -114 -86 -78 -69 -62 -78 -106 -133 -102 -26 -1 -54 -130 -327 -485 -0 -0 -0 -0 -0 -0 -0 -0 -0 -0 -0 -0
-442 -500 -534 -561 -457 -365 -356 -384 -208 -205 -151 -159 -170 -155 -166 -144 -112 -71 -62 -61 -42 -46 -64 -81 -68 -24 -1 -103 -252 -443 -586 -0 -0 -0 -0 -0 -0 -0 -0 -0 -0 -0 -0
-532 -611 -597 -559 -556 -471 -693 -542 -194 -210 -210 -162 -133 -94 -90 -108 -95 -69 -64 -56 -35 -25 -37 -22 -14 -3 -47 -204 -425 -441 -648 -0 -0 -0 -0 -0 -0 -0 -0 -0 -0 -0 -0
-471 -541 -579 -545 -593 -701 -658 -491 -271 -93 -154 -98 -83 -67 -46 -37 -57 -53 -55 -48 -25 -22 -21 -10 -1 -1 -7 -363 -527 -393 -478 -0 -0 -0 -0 -0 -0 -0 -0 -0 -0 -0 -0
-512 -498 -475 -502 -644 -303 -561 -442 -404 -336 -290 -158 -95 -58 -29 -8 -7 -20 -20 -23 -25 -9 -22 -12 -1 -0 -0 -313 -400 -454 -518 -0 -0 -0 -0 -0 -0 -0 -0 -0 -0 -0 -0
-327 -327 -275 -325 -617 -639 -479 -354 -297 -461 -416 -137 -106 -74 -62 -12 -2 -5 -11 -7 -6 -25 -15 -13 -0 -0 -1 -299 -0 -533 -25 -0 -0 -0 -0 -0 -0 -0 -0 -0 -0 -0 -0
-57 -344 -235 -251 -416 -533 -63 -376 -544 -498 -301 -104 -37 -89 -181 -122 -81 -15 -19 -20 -2 -1 -1 -1 -1 -9 -5 -259 -0 -0 -0 -0 -0 -0 -0 -0 -0 -0 -0 -0 -0 -0 -0
-0 -127 -244 -179 -332 -473 -0 -0 -0 -0 -547 -185 -276 -254 -344 -241 -146 -222 -365 -244 -76 -14 -1 -1 -2 -13 -20 -47 -0 -0 -0 -0 -0 -0 -0 -0 -0 -0 -0 -0 -0 -0 -0
-0 -0 -0 -224 -343 -399 -0 -0 -0 -0 -368 -200 -242 -246 -402 -400 -320 -329 -337 -464 -305 -278 -270 -103 -3 -4 -74 -51 -359 -0 -0 -0 -0 -0 -0 -0 -0 -0 -0 -0 -0 -0 -0
-0 -0 -0 -0 -0 -0 -0 -124 -0 -449 -294 -145 -208 -288 -278 -341 -386 -487 -408 -0 -220 -0 -0 -0 -178 -1 -64 -139 -376 -0 -0 -0 -0 -0 -0 -0 -0 -0 -0 -0 -0 -0 -0
Wind_Speed
16 23 24 25 27 27 26 25 25 25 25 25 24 23 22 20 19 16 14 12 11 11 10 9 8 6 7 5 10 11 15 16 18 12 19 19 19 21 22 22 22 22 22
14 20 24 25 28 28 27 26 25 24 25 25 24 23 21 20 19 18 16 14 13 12 10 8 8 7 5 14 16 16 13 16 20 17 13 16 17 20 20 21 21 21 20
15 20 21 27 26 29 29 28 26 24 25 25 24 23 23 22 21 20 18 15 15 13 10 8 5 10 13 20 15 14 15 15 17 20 17 16 18 17 18 19 20 19 19
18 17 20 23 23 29 30 29 27 25 24 25 25 24 23 22 21 20 18 17 15 13 11 19 22 21 17 17 15 16 14 15 18 17 19 17 17 17 18 17 19 17 17
17 19 20 19 21 24 27 29 28 25 25 23 26 24 24 23 22 21 19 17 16 13 18 21 21 20 13 14 12 13 14 15 15 15 15 17 15 17 17 18 19 17 17
17 17 18 18 21 18 24 24 25 23 20 19 22 24 25 24 23 21 20 18 17 8 18 16 16 14 12 12 12 12 14 16 18 17 17 18 17 16 16 17 17 18 18
17 18 18 19 18 17 19 22 20 21 19 17 17 19 22 23 23 22 19 19 17 13 17 15 9 9 9 10 12 12 18 19 19 18 18 18 19 18 17 16 18 17 18
18 17 19 20 19 16 15 19 21 20 17 16 17 14 16 20 21 19 21 17 15 12 13 16 11 8 7 9 11 15 19 19 19 20 20 19 20 21 21 20 20 20 18
14 16 18 20 21 18 16 16 18 20 18 17 12 10 9 16 18 19 15 15 13 12 10 11 13 11 9 7 11 17 19 19 19 21 21 20 21 21 21 21 22 22 22
8 11 16 17 18 18 16 12 16 18 17 18 13 10 12 12 15 16 17 17 13 9 9 9 11 13 11 8 10 16 17 17 19 20 21 20 20 21 22 22 22 21 21
13 8 10 12 17 18 18 14 12 13 13 14 12 9 7 10 13 13 15 15 13 10 9 9 9 14 13 9 13 16 16 16 18 20 21 21 21 22 23 23 23 23 22
17 12 7 7 12 11 10 12 10 10 12 11 11 11 8 6 7 9 13 13 13 11 8 7 6 12 14 15 12 13 15 15 17 19 19 20 21 22 22 23 24 25 24
18 12 9 6 9 8 8 7 8 8 7 11 13 11 10 8 6 6 7 11 11 12 8 5 3 4 6 10 11 11 14 14 16 17 18 20 21 23 24 25 25 24 25
14 14 15 16 9 7 7 6 6 6 7 9 11 13 13 11 8 7 6 7 9 9 8 6 3 3 5 9 10 11 13 15 16 17 18 20 21 23 24 25 25 25 24
17 14 15 17 18 17 16 13 13 13 7 6 10 11 9 9 8 7 7 6 7 6 6 6 3 1 4 7 8 9 12 14 15 16 18 20 22 24 25 24 25 26 27
17 16 18 18 19 20 21 20 18 15 6 7 7 7 7 8 9 7 7 7 6 6 5 5 3 2 2 4 6 8 11 12 14 15 17 19 21 24 26 28 29 29 29
19 19 19 19 18 19 19 20 16 11 8 7 7 7 7 9 9 8 7 8 8 7 6 5 4 3 0 3 4 6 9 10 12 14 15 16 19 20 22 25 26 28 30
21 21 22 21 20 21 21 23 20 16 11 12 10 9 6 7 8 8 7 7 10 9 7 6 5 5 2 1 4 6 8 10 10 12 14 15 16 18 19 21 23 25 28
23 22 21 22 22 20 21 23 22 15 10 10 13 12 5 6 6 8 9 8 10 10 8 6 5 5 4 2 6 5 6 8 9 10 12 14 14 16 17 19 21 22 24
23 22 20 19 20 21 21 21 20 15 14 15 10 10 12 10 6 6 9 9 9 10 8 7 6 6 5 4 8 5 4 6 7 9 10 12 13 14 16 18 19 19 21
21 20 19 19 20 20 19 18 19 19 19 18 17 17 17 18 17 15 13 10 9 10 8 8 8 7 6 6 11 8 2 4 6 8 9 10 12 13 14 15 18 19 20
20 20 20 19 20 19 18 19 19 20 21 22 15 13 16 20 16 13 12 12 12 10 10 11 11 11 8 6 12 10 2 2 4 6 8 9 11 12 14 15 18 18 18
19 20 19 18 18 18 19 19 21 20 19 17 11 12 11 13 17 14 14 14 13 17 17 18 16 15 12 9 10 10 4 1 2 5 6 8 10 11 12 14 16 17 16
19 19 18 17 17 18 18 20 22 22 21 18 16 15 12 11 11 14 18 20 23 26 28 25 19 16 11 8 7 8 7 4 4 5 5 7 8 10 11 13 14 14 17
20 19 18 18 17 17 18 19 20 19 21 22 22 23 18 18 21 22 22 25 25 25 31 36 23 21 11 8 8 10 9 8 4 3 3 4 6 7 9 11 13 15 17
21 19 19 19 18 17 18 19 19 19 19 19 20 19 15 20 25 24 23 27 33 34 34 39 38 24 21 9 8 11 9 9 6 5 3 2 3 5 8 10 12 13 15
Wind_Direction
137 148 151 154 168 170 163 160 159 164 179 184 189 194 196 200 200 198 205 201 205 193 201 241 241 213 241 107 77 70 57 57 52 64 48 52 49 45 40 37 34 36 40
140 148 156 160 169 174 175 172 166 163 172 180 188 202 208 208 215 220 222 229 225 234 195 223 253 250 127 67 58 60 62 57 49 54 59 52 55 47 42 40 39 38 41
147 154 156 168 166 179 181 179 174 167 174 185 186 194 206 208 207 205 210 249 241 234 172 179 201 91 79 50 63 65 64 61 60 51 57 56 52 43 47 45 42 40 39
151 155 161 164 164 177 186 187 181 174 171 179 191 195 201 200 202 211 237 236 236 206 206 45 39 50 64 64 69 66 70 69 58 61 60 62 54 48 42 50 44 45 43
151 157 163 164 165 168 176 183 181 175 175 170 190 193 194 197 196 204 224 228 220 233 24 17 41 53 83 75 83 78 76 75 72 71 68 62 63 58 49 44 39 44 44
160 157 159 164 168 164 171 170 172 170 162 159 172 183 197 199 202 187 199 194 215 118 351 294 71 90 90 87 89 91 86 79 71 71 69 65 63 57 51 45 43 36 40
163 162 160 163 167 168 168 170 166 167 162 159 159 165 178 186 189 187 174 213 177 144 3 269 207 133 114 106 97 96 78 73 70 71 68 64 58 54 50 47 40 39 37
171 169 167 165 164 168 169 169 170 170 165 163 163 155 159 173 177 169 184 168 156 133 44 258 216 184 169 124 98 87 69 67 67 63 62 60 56 52 49 44 38 35 37
180 178 174 171 169 165 170 173 172 173 171 169 162 156 150 163 167 170 156 163 148 143 88 92 207 214 207 148 101 74 67 66 65 58 54 55 53 49 47 43 38 35 31
254 191 178 178 175 175 172 174 173 173 175 174 168 165 163 162 166 166 174 173 156 135 130 106 173 222 219 144 108 70 65 65 59 54 51 53 52 49 45 43 40 38 34
271 250 185 183 179 175 172 173 174 174 175 178 179 177 176 168 169 170 175 174 169 156 145 133 143 214 218 103 72 61 62 65 56 51 49 51 52 46 44 42 41 39 37
278 267 246 206 173 181 176 174 180 183 181 185 184 183 190 190 179 178 178 176 176 168 155 143 89 191 214 24 61 62 58 60 54 51 52 53 52 50 47 45 43 43 43
276 276 263 234 175 190 186 188 190 182 182 178 184 190 191 202 212 212 187 181 179 180 169 150 113 96 107 45 52 63 50 55 54 52 54 54 52 50 48 47 45 46 44
282 288 274 264 264 244 238 244 246 204 189 181 180 183 191 198 209 236 227 196 189 187 183 177 156 44 59 39 49 57 49 48 52 52 55 53 52 51 50 49 48 47 45
273 293 282 267 266 265 267 271 269 274 259 216 191 195 199 201 205 215 236 233 207 207 201 188 184 67 47 33 48 64 47 48 51 54 58 53 51 49 49 51 50 47 43
280 285 270 270 271 270 268 271 274 276 253 255 207 229 248 212 209 209 218 249 236 228 227 204 209 181 76 57 64 69 48 52 54 59 59 59 58 54 52 52 52 50 45
280 278 274 274 280 280 286 283 284 284 266 255 226 246 226 209 217 223 214 239 258 261 242 214 216 218 348 60 84 74 53 57 62 64 67 69 60 62 58 56 56 54 48
279 281 274 279 283 290 292 290 289 285 281 276 280 277 253 242 230 236 234 243 267 268 259 223 220 215 255 123 118 93 53 54 68 69 69 62 67 64 61 56 56 54 51
279 287 290 283 284 295 298 299 292 286 277 277 284 291 280 278 239 233 244 254 262 270 263 258 222 218 284 184 146 107 45 49 54 64 60 63 70 69 63 58 56 59 58
282 286 293 294 294 295 296 299 298 293 286 283 289 295 300 301 284 252 267 267 261 267 263 261 256 249 268 202 168 142 31 47 60 54 60 66 69 76 70 61 60 61 60
284 288 291 294 297 298 299 304 304 290 291 291 288 285 290 290 292 290 289 286 273 273 262 263 266 261 246 214 181 170 7 36 54 48 66 73 75 82 74 67 62 63 68
283 289 288 294 299 299 298 300 306 304 297 287 291 281 281 285 298 296 295 290 284 274 274 276 278 276 271 240 187 183 291 31 53 59 59 66 89 85 76 69 65 71 77
286 287 291 295 302 305 298 297 299 300 305 300 306 284 281 296 302 303 297 294 290 284 281 278 278 279 277 271 194 190 262 163 19 34 67 73 98 84 75 71 72 78 80
287 287 291 297 299 307 307 305 300 295 295 298 293 293 290 294 297 303 301 294 284 280 272 274 277 282 273 261 236 220 252 237 311 341 41 71 88 88 69 72 78 85 80
287 285 287 293 303 306 312 315 312 304 295 294 295 286 282 276 283 291 291 287 287 283 275 265 272 274 272 247 228 203 201 200 254 294 343 62 80 83 82 83 85 84 86
276 284 285 288 295 309 313 317 320 316 307 304 304 312 308 293 288 296 295 282 276 277 277 267 259 272 274 252 216 199 203 197 213 258 263 306 77 86 88 91 86 94 94